SCP
0 0 0 -0 -0 -0 -0 0 -0 0 -0 -0 -0 -0 -0 -0 -0 -0 -0 -0 -0 -0 -0 -0 -0 -0 0 0 0 0 0 0 0 0 0 0 0 -0 -0 -0 -0 -0 0
-0 -0 -0 -0 -0 -0 -0 -0 -0 -0 -0 -0 -0 -0 -0 -0 -0 -0 -0 -0 -0 -0 -0 -0 -0 -0 -0 -0 -0 0 0 0 0 0 0 0 0 -0 -0 0 0 -0 -0
-0 -0 -0 -0 -0 -0 -0 -0 -0 -0 -0 -0 -0 -0 -0 -0 -0 -0 -0 -0 -0 -0 -0 -0 -0 -0 -0 -0 -0 -0 0 0 0 0 0 0 0 0 0 0 0 0 0
-0 0 0 -0 -0 -0 -0 -0 -0 -0 -0 -0 -0 -0 -0 -0 -0 -0 -0 -0 -0 -0 -0 -0 -0 -0 -0 0 0 0 0 0 0 0 0 0 0 0 0 0 0 0 0
0 0 0 0 -0 -0 -0 -0 -0 -0 -0 -0 -0 -0 -0 -0 -0 -0 -0 -0 -0 -0 -0 -0 0 0 0 0 0 0 0 0 0 0 0 0 0 0 0 0 0 0 0
0 0 0 0 0 0 0 -0 -0 -0 -0 -0 -0 0 -0 -0 -0 0 0 0 0 0 0 0 0 0 0 0 0 0 0 0 0 0 0 0 0 0 0 0 0 0 0
0 0 0 0 0 0 0 0 0 0 0 0 0 0 0 0 0 0 0 0 0 0 0 0 0 0 0 0 0 0 0 0 0 0 0 0 0 0 0 0 0 0 0
0 0 0 0 0 0 0 0 0 0 0 0 0 0 0 0 0 0 0 0 0 0 0 0 0 0 0 0 0 0 0 0 0 0 0 0 0 0 0 0 0 0 0
0 0 0 0 0 0 0 0 0 0 0 0 0 0 0 0 0 0 0 0 0 0 0 0 0 0 0 0 0 0 0 0 0 0 0 0 0 0 0 0 0 0 0
0 0 0 0 0 0 0 0 0 0 0 0 0 0 0 0 0 0 0 0 0 0 0 0 0 0 0 0 0 0 0 0 0 0 0 0 0 0 0 0 0 0 0
0 0 0 0 0 0 0 0 0 0 0 0 0 0 0 0 0 0 0 0 0 0 0 0 0 0 0 0 0 0 0 0 0 0 0 0 0 0 0 0 0 0 0
0 0 0 0 0 0 0 0 0 0 0 0 0 0 0 0 0 0 0 0 0 0 0 0 0 0 0 0 0 0 0 0 0 0 0 0 0 0 0 0 0 0 0
0 0 0 0 0 0 0 0 0 0 0 0 0 0 0 0 0 0 0 0 0 0 0 0 0 0 0 0 0 0 0 0 0 0 0 0 0 0 0 0 0 0 0
0 0 0 0 0 0 0 0 0 0 0 0 0 0 0 0 0 0 0 0 0 0 0 0 0 0 0 0 0 0 0 0 0 0 0 0 0 0 0 0 0 0 0
0 0 0 0 0 0 0 0 0 0 0 0 0 0 0 0 0 0 0 0 0 0 0 0 0 0 0 0 0 0 0 0 0 0 0 0 0 0 0 0 0 0 0
0 0 0 0 0 0 0 0 0 0 0 0 0 0 0 0 0 0 0 0 0 0 0 0 0 0 0 0 0 0 0 0 0 0 0 0 0 0 0 0 0 0 0
0 0 0 0 0 0 0 0 0 0 0 0 0 0 0 0 0 0 0 0 0 0 0 0 0 0 0 0 0 0 0 0 0 0 0 0 0 0 0 0 0 0 0
0 0 0 0 0 0 0 0 0 0 0 0 0 0 0 0 0 0 0 0 0 0 0 0 0 0 0 -0 -0 0 0 0 0 0 0 0 0 0 0 0 0 0 0
0 0 0 0 0 0 0 0 0 0 0 0 0 0 0 0 0 0 0 0 0 0 0 0 0 0 0 -0 -0 0 0 0 0 0 0 0 0 0 0 0 0 0 0
0 0 0 0 0 0 0 0 0 0 0 0 0 0 0 0 0 0 0 0 0 0 0 0 0 0 -0 -0 0 0 0 0 0 0 0 0 0 0 0 0 0 0 0
0 0 0 0 0 0 0 0 0 0 0 0 0 0 0 0 0 0 0 0 0 0 0 0 0 0 0 -0 -0 -0 0 0 0 0 0 0 0 0 0 0 0 0 0
0 0 0 0 0 0 0 0 0 0 0 0 0 0 0 0 0 0 0 0 0 0 0 0 0 0 0 -0 -0 -0 0 0 0 0 0 0 0 0 0 0 0 0 0
0 0 0 0 0 0 0 0 0 0 0 0 0 0 0 0 0 0 0 0 0 0 0 0 0 0 0 0 0 -0 0 0 -0 0 0 0 0 0 0 0 0 0 0
0 0 0 0 0 0 0 0 0 0 0 0 0 0 0 0 0 0 0 0 0 0 0 0 0 0 0 0 0 0 0 0 -0 0 0 0 0 0 0 0 0 0 0
0 0 0 0 0 0 0 0 0 0 0 0 0 0 0 0 0 0 0 0 0 0 0 0 0 0 0 0 0 0 0 0 0 0 0 0 0 0 0 0 0 0 0
0 0 0 0 0 0 0 0 0 0 0 0 0 0 0 0 0 0 0 0 0 0 0 0 0 0 0 0 0 0 0 0 0 0 0 0 0 0 0 0 0 0 0
Wind_Speed_500mb
33 27 25 22 19 17 15 13 11 7 4 5 6 4 6 7 8 9 10 10 10 8 7 8 8 8 9 9 10 12 12 12 13 14 14 13 13 14 14 13 14 15 14
28 27 25 24 23 19 18 15 11 10 9 7 9 9 8 11 12 9 10 9 9 9 9 8 8 12 15 14 14 14 15 14 13 13 14 12 9 11 11 12 15 12 13
31 27 23 22 22 19 13 16 14 15 14 10 5 4 4 8 10 12 10 11 12 11 11 11 13 12 13 14 15 14 15 16 16 14 13 10 9 12 9 13 13 11 10
34 28 24 19 18 15 14 13 13 12 11 11 12 13 12 12 14 15 16 16 15 16 17 18 19 18 17 18 20 21 21 20 18 16 12 9 8 12 14 15 17 17 13
33 29 23 22 19 16 15 13 13 12 12 16 15 15 15 15 16 16 17 17 18 19 20 23 24 23 22 21 21 22 20 20 19 18 17 13 10 13 20 25 25 21 19
36 30 28 25 21 19 18 17 16 16 16 14 13 11 10 11 13 14 15 15 16 19 22 23 23 23 26 26 25 25 25 23 21 19 17 16 17 20 21 24 25 23 21
40 35 30 27 24 22 20 19 18 16 15 13 11 10 9 10 11 11 11 12 12 13 14 15 17 19 23 24 24 24 25 26 25 23 20 18 18 20 24 29 27 24 22
40 37 35 33 30 27 21 17 15 14 12 10 10 8 6 4 1 3 5 7 8 10 12 13 13 13 13 14 16 18 22 24 24 24 22 20 22 23 25 30 28 25 25
42 41 39 37 33 26 22 20 18 15 12 10 7 4 3 2 2 2 1 3 6 8 10 12 15 16 17 16 15 15 16 19 21 23 21 21 25 23 21 29 32 26 25
46 45 43 40 36 31 28 25 22 19 17 15 12 9 6 4 1 2 5 8 11 13 15 17 18 19 20 19 19 19 17 15 15 16 16 22 26 26 27 30 33 33 32
52 52 51 48 43 37 34 31 28 25 22 18 14 10 10 7 6 9 12 15 18 21 21 23 24 23 24 25 25 22 21 20 17 15 16 19 29 37 41 42 41 43 42
54 57 57 54 50 44 41 37 33 29 24 20 16 13 10 9 11 12 14 15 16 17 18 21 24 27 29 29 26 26 26 24 23 21 17 18 20 23 28 33 35 38 42
52 57 58 58 56 51 47 43 39 34 30 27 23 21 19 20 19 17 16 16 17 18 21 22 25 27 27 29 29 29 26 25 24 23 23 24 25 27 28 29 31 29 29
61 59 59 61 61 58 53 48 44 39 34 31 29 27 25 23 22 20 19 20 19 19 20 23 26 29 32 31 30 29 30 30 29 28 26 26 27 28 29 29 30 32 30
66 64 64 64 66 64 60 55 51 46 42 39 37 34 31 29 26 24 23 22 20 22 22 25 29 31 32 31 30 30 28 28 29 30 31 30 31 31 32 32 34 34 34
69 68 66 67 67 67 65 60 55 50 48 46 43 40 36 32 29 27 26 24 23 23 26 29 33 35 37 37 33 31 31 30 28 29 31 31 33 33 34 34 36 38 39
73 68 68 69 66 67 65 63 60 56 54 51 47 45 41 36 32 29 28 26 25 26 28 32 35 37 39 39 40 37 35 33 32 31 32 30 32 34 35 37 35 33 37
72 72 70 72 70 67 66 68 64 61 57 54 51 49 44 40 36 33 32 31 30 29 31 34 37 39 40 42 42 37 36 37 37 34 30 25 21 24 27 27 26 26 32
74 75 77 78 75 69 66 70 67 64 61 58 55 53 49 47 41 37 36 34 31 29 31 33 35 38 42 43 44 44 42 42 33 34 30 22 15 17 15 17 31 37 27
78 78 79 79 75 70 68 71 70 67 66 63 61 58 56 51 46 43 40 37 32 31 33 35 35 36 39 47 51 50 45 36 40 27 15 24 37 36 28 30 40 33 47
84 84 85 84 80 76 78 80 81 79 74 71 66 63 59 53 48 45 42 38 33 33 36 37 37 37 38 43 52 52 44 38 23 11 32 52 43 39 40 46 42 41 38
91 89 86 84 81 79 79 80 81 77 74 68 64 64 59 56 53 50 46 40 36 36 39 40 39 38 38 41 44 47 36 36 12 44 46 34 52 39 38 43 57 62 62
95 93 88 83 79 79 76 76 80 73 70 72 76 73 67 63 60 57 51 44 39 39 40 41 40 37 35 37 34 25 15 15 74 60 65 39 51 41 58 63 67 67 69
94 89 81 75 76 76 77 80 85 87 88 88 81 74 69 67 64 60 55 48 43 41 42 42 39 37 37 37 37 31 31 36 23 45 64 76 70 73 79 80 76 72 74
89 85 76 73 75 77 77 82 86 90 89 81 74 70 69 68 66 64 59 53 47 43 43 42 40 38 41 40 40 40 42 41 45 48 68 67 86 87 89 84 88 85 77
81 78 76 78 79 80 78 81 85 88 89 82 79 77 76 73 69 68 63 58 50 45 44 43 40 41 44 45 43 42 42 45 52 52 72 91 91 95 91 98 88 84 84
Wind_Direction_500mb
196 199 199 201 185 177 187 195 208 203 204 221 247 273 319 321 319 334 341 340 340 334 334 333 337 333 334 343 345 339 338 338 341 346 350 358 12 5 3 1 6 4 6
194 192 195 194 188 180 181 174 180 180 194 223 259 261 279 311 333 348 341 343 337 330 331 325 312 308 319 326 322 321 323 329 335 345 353 360 22 346 8 346 358 353 349
191 191 197 197 192 194 198 196 199 195 214 234 272 291 295 309 320 316 318 306 301 298 295 296 296 305 307 309 305 301 303 311 316 328 345 346 357 343 0 319 342 338 321
192 189 193 194 194 195 195 198 205 210 221 240 255 267 280 277 281 286 287 284 282 287 292 294 301 305 307 303 303 307 315 319 318 317 319 318 1 318 299 307 326 324 309
194 188 189 189 195 198 204 206 217 216 219 232 249 262 269 273 274 279 281 283 285 288 285 284 288 291 288 285 289 294 298 300 306 310 311 302 295 302 300 306 306 301 303
195 195 193 197 197 192 187 190 196 197 209 219 231 244 257 275 279 278 277 280 284 286 289 293 294 291 289 288 284 280 280 281 285 294 296 294 290 288 288 290 296 305 296
196 199 202 202 195 189 186 189 190 189 202 205 219 232 243 254 267 284 300 309 310 306 305 305 304 301 296 294 292 290 285 279 275 274 280 290 286 279 288 293 296 298 293
205 205 207 206 202 198 203 205 201 201 206 212 216 213 212 224 295 337 350 340 340 344 342 343 336 328 322 320 313 299 287 281 275 267 266 262 261 267 275 281 285 289 290
211 212 213 208 207 210 211 211 207 202 203 207 209 212 198 156 183 158 309 340 347 352 345 341 337 331 328 325 318 313 307 303 289 272 260 252 250 248 260 273 282 286 285
216 218 220 217 216 217 218 217 211 204 198 197 199 203 202 211 269 355 350 351 349 343 339 333 331 329 326 326 324 320 318 309 296 288 263 244 243 239 241 253 272 277 277
220 223 221 220 221 218 220 215 210 204 202 207 212 211 218 242 269 306 322 329 330 333 337 332 331 328 320 317 317 317 317 316 313 305 293 276 260 256 256 259 261 270 272
224 224 225 224 223 223 223 219 215 213 215 217 223 232 241 255 268 276 287 300 314 318 319 322 321 321 320 317 315 313 311 311 311 309 305 293 282 276 276 277 274 262 264
234 228 229 226 227 225 225 223 221 218 218 221 226 234 239 247 254 262 273 285 293 301 309 314 319 320 316 311 306 306 303 300 297 297 301 300 301 299 296 293 293 288 277
236 236 233 229 228 228 226 224 223 223 224 225 227 231 234 244 254 263 272 278 287 291 294 304 316 320 318 315 308 300 300 302 304 303 299 295 292 288 286 288 290 293 292
238 238 235 232 230 228 228 224 223 222 224 226 229 231 237 242 250 259 267 274 279 283 290 301 307 311 313 311 310 305 300 300 302 300 298 293 290 289 287 283 281 282 281
241 238 237 234 231 228 227 225 225 224 226 227 228 231 233 238 247 257 264 271 273 280 290 300 306 314 318 319 316 313 312 312 307 304 298 294 289 283 282 280 279 278 277
243 239 238 236 233 230 227 226 224 224 226 228 229 230 232 237 245 252 258 263 269 277 290 299 308 318 322 319 319 321 322 320 317 311 304 297 288 286 284 283 282 281 281
243 237 236 236 235 233 227 226 224 224 226 230 231 231 233 240 245 249 252 256 262 275 288 296 306 317 322 320 319 322 324 327 326 322 319 314 306 292 285 287 284 295 295
245 238 234 236 234 233 228 226 225 226 229 231 232 235 235 237 240 242 248 253 260 273 285 294 306 315 320 320 319 324 329 329 328 324 320 328 347 347 333 298 299 304 300
242 240 237 235 231 231 230 226 226 226 229 231 232 233 233 235 235 239 245 250 258 269 281 292 302 312 320 321 324 324 327 327 327 329 354 340 321 317 305 298 311 303 310
236 233 232 231 228 227 226 221 223 226 227 231 232 233 234 235 236 239 244 249 258 273 282 288 295 306 317 322 323 319 327 331 340 345 327 321 315 305 301 302 305 306 302
233 230 230 231 230 229 229 227 228 231 231 235 237 236 236 236 237 239 243 247 255 268 279 287 294 303 313 323 327 332 331 333 319 316 314 309 313 306 303 305 301 299 299
225 227 229 231 231 230 230 227 227 226 230 231 232 234 235 236 236 238 240 245 254 267 276 281 287 295 307 313 318 325 333 314 319 320 318 319 319 304 298 298 298 296 300
226 226 231 233 230 229 229 226 227 228 228 232 237 239 238 237 237 238 240 244 251 265 274 278 283 292 299 304 306 309 308 301 303 309 312 311 309 308 306 307 304 304 309
222 225 230 232 228 227 228 228 229 231 234 237 239 237 236 236 236 237 240 244 250 261 270 274 280 289 295 297 300 304 305 303 297 288 297 305 307 307 307 306 309 309 311
222 225 228 226 226 226 227 230 231 233 235 234 234 233 234 235 235 237 238 241 247 257 266 270 276 283 289 294 297 299 300 300 301 299 299 306 307 310 307 306 306 310 314
Wind_Speed_850mb
33 27 25 22 19 17 15 13 11 7 4 5 6 4 6 7 8 9 10 10 10 8 7 8 8 8 9 9 10 12 12 12 13 14 14 13 13 14 14 13 14 15 14
28 27 25 24 23 19 18 15 11 10 9 7 9 9 8 11 12 9 10 9 9 9 9 8 8 12 15 14 14 14 15 14 13 13 14 12 9 11 11 12 15 12 13
31 27 23 22 22 19 13 16 14 15 14 10 5 4 4 8 10 12 10 11 12 11 11 11 13 12 13 14 15 14 15 16 16 14 13 10 9 12 9 13 13 11 10
34 28 24 19 18 15 14 13 13 12 11 11 12 13 12 12 14 15 16 16 15 16 17 18 19 18 17 18 20 21 21 20 18 16 12 9 8 12 14 15 17 17 13
33 29 23 22 19 16 15 13 13 12 12 16 15 15 15 15 16 16 17 17 18 19 20 23 24 23 22 21 21 22 20 20 19 18 17 13 10 13 20 25 25 21 19
36 30 28 25 21 19 18 17 16 16 16 14 13 11 10 11 13 14 15 15 16 19 22 23 23 23 26 26 25 25 25 23 21 19 17 16 17 20 21 24 25 23 21
40 35 30 27 24 22 20 19 18 16 15 13 11 10 9 10 11 11 11 12 12 13 14 15 17 19 23 24 24 24 25 26 25 23 20 18 18 20 24 29 27 24 22
40 37 35 33 30 27 21 17 15 14 12 10 10 8 6 4 1 3 5 7 8 10 12 13 13 13 13 14 16 18 22 24 24 24 22 20 22 23 25 30 28 25 25
42 41 39 37 33 26 22 20 18 15 12 10 7 4 3 2 2 2 1 3 6 8 10 12 15 16 17 16 15 15 16 19 21 23 21 21 25 23 21 29 32 26 25
46 45 43 40 36 31 28 25 22 19 17 15 12 9 6 4 1 2 5 8 11 13 15 17 18 19 20 19 19 19 17 15 15 16 16 22 26 26 27 30 33 33 32
52 52 51 48 43 37 34 31 28 25 22 18 14 10 10 7 6 9 12 15 18 21 21 23 24 23 24 25 25 22 21 20 17 15 16 19 29 37 41 42 41 43 42
54 57 57 54 50 44 41 37 33 29 24 20 16 13 10 9 11 12 14 15 16 17 18 21 24 27 29 29 26 26 26 24 23 21 17 18 20 23 28 33 35 38 42
52 57 58 58 56 51 47 43 39 34 30 27 23 21 19 20 19 17 16 16 17 18 21 22 25 27 27 29 29 29 26 25 24 23 23 24 25 27 28 29 31 29 29
61 59 59 61 61 58 53 48 44 39 34 31 29 27 25 23 22 20 19 20 19 19 20 23 26 29 32 31 30 29 30 30 29 28 26 26 27 28 29 29 30 32 30
66 64 64 64 66 64 60 55 51 46 42 39 37 34 31 29 26 24 23 22 20 22 22 25 29 31 32 31 30 30 28 28 29 30 31 30 31 31 32 32 34 34 34
69 68 66 67 67 67 65 60 55 50 48 46 43 40 36 32 29 27 26 24 23 23 26 29 33 35 37 37 33 31 31 30 28 29 31 31 33 33 34 34 36 38 39
73 68 68 69 66 67 65 63 60 56 54 51 47 45 41 36 32 29 28 26 25 26 28 32 35 37 39 39 40 37 35 33 32 31 32 30 32 34 35 37 35 33 37
72 72 70 72 70 67 66 68 64 61 57 54 51 49 44 40 36 33 32 31 30 29 31 34 37 39 40 42 42 37 36 37 37 34 30 25 21 24 27 27 26 26 32
74 75 77 78 75 69 66 70 67 64 61 58 55 53 49 47 41 37 36 34 31 29 31 33 35 38 42 43 44 44 42 42 33 34 30 22 15 17 15 17 31 37 27
78 78 79 79 75 70 68 71 70 67 66 63 61 58 56 51 46 43 40 37 32 31 33 35 35 36 39 47 51 50 45 36 40 27 15 24 37 36 28 30 40 33 47
84 84 85 84 80 76 78 80 81 79 74 71 66 63 59 53 48 45 42 38 33 33 36 37 37 37 38 43 52 52 44 38 23 11 32 52 43 39 40 46 42 41 38
91 89 86 84 81 79 79 80 81 77 74 68 64 64 59 56 53 50 46 40 36 36 39 40 39 38 38 41 44 47 36 36 12 44 46 34 52 39 38 43 57 62 62
95 93 88 83 79 79 76 76 80 73 70 72 76 73 67 63 60 57 51 44 39 39 40 41 40 37 35 37 34 25 15 15 74 60 65 39 51 41 58 63 67 67 69
94 89 81 75 76 76 77 80 85 87 88 88 81 74 69 67 64 60 55 48 43 41 42 42 39 37 37 37 37 31 31 36 23 45 64 76 70 73 79 80 76 72 74
89 85 76 73 75 77 77 82 86 90 89 81 74 70 69 68 66 64 59 53 47 43 43 42 40 38 41 40 40 40 42 41 45 48 68 67 86 87 89 84 88 85 77
81 78 76 78 79 80 78 81 85 88 89 82 79 77 76 73 69 68 63 58 50 45 44 43 40 41 44 45 43 42 42 45 52 52 72 91 91 95 91 98 88 84 84
Wind_Direction_850mb
196 199 199 201 185 177 187 195 208 203 204 221 247 273 319 321 319 334 341 340 340 334 334 333 337 333 334 343 345 339 338 338 341 346 350 358 12 5 3 1 6 4 6
194 192 195 194 188 180 181 174 180 180 194 223 259 261 279 311 333 348 341 343 337 330 331 325 312 308 319 326 322 321 323 329 335 345 353 360 22 346 8 346 358 353 349
191 191 197 197 192 194 198 196 199 195 214 234 272 291 295 309 320 316 318 306 301 298 295 296 296 305 307 309 305 301 303 311 316 328 345 346 357 343 0 319 342 338 321
192 189 193 194 194 195 195 198 205 210 221 240 255 267 280 277 281 286 287 284 282 287 292 294 301 305 307 303 303 307 315 319 318 317 319 318 1 318 299 307 326 324 309
194 188 189 189 195 198 204 206 217 216 219 232 249 262 269 273 274 279 281 283 285 288 285 284 288 291 288 285 289 294 298 300 306 310 311 302 295 302 300 306 306 301 303
195 195 193 197 197 192 187 190 196 197 209 219 231 244 257 275 279 278 277 280 284 286 289 293 294 291 289 288 284 280 280 281 285 294 296 294 290 288 288 290 296 305 296
196 199 202 202 195 189 186 189 190 189 202 205 219 232 243 254 267 284 300 309 310 306 305 305 304 301 296 294 292 290 285 279 275 274 280 290 286 279 288 293 296 298 293
205 205 207 206 202 198 203 205 201 201 206 212 216 213 212 224 295 337 350 340 340 344 342 343 336 328 322 320 313 299 287 281 275 267 266 262 261 267 275 281 285 289 290
211 212 213 208 207 210 211 211 207 202 203 207 209 212 198 156 183 158 309 340 347 352 345 341 337 331 328 325 318 313 307 303 289 272 260 252 250 248 260 273 282 286 285
216 218 220 217 216 217 218 217 211 204 198 197 199 203 202 211 269 355 350 351 349 343 339 333 331 329 326 326 324 320 318 309 296 288 263 244 243 239 241 253 272 277 277
220 223 221 220 221 218 220 215 210 204 202 207 212 211 218 242 269 306 322 329 330 333 337 332 331 328 320 317 317 317 317 316 313 305 293 276 260 256 256 259 261 270 272
224 224 225 224 223 223 223 219 215 213 215 217 223 232 241 255 268 276 287 300 314 318 319 322 321 321 320 317 315 313 311 311 311 309 305 293 282 276 276 277 274 262 264
234 228 229 226 227 225 225 223 221 218 218 221 226 234 239 247 254 262 273 285 293 301 309 314 319 320 316 311 306 306 303 300 297 297 301 300 301 299 296 293 293 288 277
236 236 233 229 228 228 226 224 223 223 224 225 227 231 234 244 254 263 272 278 287 291 294 304 316 320 318 315 308 300 300 302 304 303 299 295 292 288 286 288 290 293 292
238 238 235 232 230 228 228 224 223 222 224 226 229 231 237 242 250 259 267 274 279 283 290 301 307 311 313 311 310 305 300 300 302 300 298 293 290 289 287 283 281 282 281
241 238 237 234 231 228 227 225 225 224 226 227 228 231 233 238 247 257 264 271 273 280 290 300 306 314 318 319 316 313 312 312 307 304 298 294 289 283 282 280 279 278 277
243 239 238 236 233 230 227 226 224 224 226 228 229 230 232 237 245 252 258 263 269 277 290 299 308 318 322 319 319 321 322 320 317 311 304 297 288 286 284 283 282 281 281
243 237 236 236 235 233 227 226 224 224 226 230 231 231 233 240 245 249 252 256 262 275 288 296 306 317 322 320 319 322 324 327 326 322 319 314 306 292 285 287 284 295 295
245 238 234 236 234 233 228 226 225 226 229 231 232 235 235 237 240 242 248 253 260 273 285 294 306 315 320 320 319 324 329 329 328 324 320 328 347 347 333 298 299 304 300
242 240 237 235 231 231 230 226 226 226 229 231 232 233 233 235 235 239 245 250 258 269 281 292 302 312 320 321 324 324 327 327 327 329 354 340 321 317 305 298 311 303 310
236 233 232 231 228 227 226 221 223 226 227 231 232 233 234 235 236 239 244 249 258 273 282 288 295 306 317 322 323 319 327 331 340 345 327 321 315 305 301 302 305 306 302
233 230 230 231 230 229 229 227 228 231 231 235 237 236 236 236 237 239 243 247 255 268 279 287 294 303 313 323 327 332 331 333 319 316 314 309 313 306 303 305 301 299 299
225 227 229 231 231 230 230 227 227 226 230 231 232 234 235 236 236 238 240 245 254 267 276 281 287 295 307 313 318 325 333 314 319 320 318 319 319 304 298 298 298 296 300
226 226 231 233 230 229 229 226 227 228 228 232 237 239 238 237 237 238 240 244 251 265 274 278 283 292 299 304 306 309 308 301 303 309 312 311 309 308 306 307 304 304 309
222 225 230 232 228 227 228 228 229 231 234 237 239 237 236 236 236 237 240 244 250 261 270 274 280 289 295 297 300 304 305 303 297 288 297 305 307 307 307 306 309 309 311
222 225 228 226 226 226 227 230 231 233 235 234 234 233 234 235 235 237 238 241 247 257 266 270 276 283 289 294 297 299 300 300 301 299 299 306 307 310 307 306 306 310 314